EHI
0 0 0 0 1 1 1 1 1 3 5 6 9 13 14 13 11 11 12 12 15 17 15 12 13 17 20 21 23 23 22 22 19 15 10 10 12 12 12 13 13 13 12 11
0 0 0 1 2 2 2 2 2 4 7 8 10 13 14 13 12 13 13 14 15 16 15 14 15 18 21 23 25 26 26 24 22 18 14 12 12 11 9 10 12 13 12 11
0 0 0 1 2 2 3 3 4 5 7 8 9 12 14 15 15 15 16 15 14 13 14 14 14 16 19 22 26 28 28 27 25 23 21 17 13 10 9 10 14 16 14 11
0 0 0 0 1 1 2 3 4 6 7 7 7 9 12 15 18 18 17 16 13 11 11 12 13 13 15 19 24 26 26 25 25 26 25 21 15 12 12 15 18 19 17 13
0 0 0 1 1 1 0 2 4 6 7 7 6 6 10 15 20 22 20 17 14 11 10 12 13 14 14 16 20 22 22 20 22 25 25 21 17 14 15 18 19 19 17 15
0 0 0 2 2 1 0 1 4 7 8 7 6 8 12 17 21 24 23 19 15 13 12 13 15 16 16 16 17 18 19 17 18 20 21 19 18 16 17 18 17 16 15 14
0 0 1 3 4 3 3 4 5 6 8 9 11 14 18 21 22 22 21 18 16 16 17 16 16 17 17 16 14 14 14 15 14 15 15 16 18 18 17 16 16 15 15 16
1 1 2 3 3 3 5 6 6 7 9 12 16 20 22 23 22 19 17 15 14 16 17 17 16 17 17 15 12 9 10 13 14 13 12 14 17 16 15 15 16 16 16 17
3 4 4 3 2 2 4 5 5 7 9 12 16 19 22 22 20 17 14 11 10 11 12 13 14 14 15 13 10 8 9 12 15 14 12 13 15 15 14 15 16 15 14 13
5 4 4 3 3 2 3 3 3 5 7 11 15 17 19 20 19 16 12 9 8 9 11 11 11 12 13 13 10 8 10 12 14 14 12 12 13 14 14 14 14 12 11 10
4 4 3 3 3 3 3 3 2 2 5 10 12 14 15 17 16 13 9 7 7 9 11 12 11 12 13 12 11 9 9 12 13 12 12 13 13 13 13 12 11 10 10 9
4 4 3 3 3 3 4 3 2 3 5 8 10 11 12 13 13 9 6 4 5 7 9 10 10 11 12 11 11 11 10 10 11 11 12 13 13 13 13 10 7 6 7 6
4 4 4 3 3 4 5 3 3 5 7 8 8 9 9 9 9 7 4 4 4 5 7 7 8 9 9 10 12 11 9 8 9 11 12 12 12 12 12 9 6 4 3 2
4 5 5 4 4 5 5 4 4 6 7 7 6 6 6 6 5 5 4 5 5 5 5 6 7 7 8 9 11 10 7 6 7 10 11 10 10 10 10 9 8 6 3 1
3 4 4 4 4 4 4 4 4 5 6 5 4 4 4 3 3 4 4 5 5 5 5 6 7 7 7 8 8 8 6 4 5 8 10 9 8 7 7 8 8 6 4 3
1 2 3 3 4 3 3 4 4 4 4 4 4 4 4 3 3 3 4 4 4 3 4 5 6 7 6 6 7 6 5 3 3 6 7 8 7 7 6 6 6 5 4 5
1 1 2 3 3 3 3 3 3 3 3 3 4 5 5 3 2 2 2 2 1 1 1 3 5 5 5 6 6 5 4 3 3 4 6 7 9 8 7 6 6 5 4 4
0 1 1 1 3 3 3 3 3 3 3 4 4 5 5 3 1 1 1 1 1 0 0 1 3 4 5 5 5 5 4 4 4 5 6 8 9 9 8 6 4 4 3 3
1 1 1 1 3 3 3 3 3 3 3 4 4 3 3 2 1 0 0 0 1 0 0 0 1 2 4 4 4 5 5 5 5 5 5 7 8 8 7 4 3 3 3 2
2 2 2 3 3 3 2 2 2 1 1 1 1 1 1 1 0 0 0 0 0 0 0 0 0 1 3 3 3 4 4 4 3 3 4 5 5 5 4 3 1 1 2 2
3 3 3 3 2 1 1 1 1 0 0 0 0 0 0 0 0 0 0 0 0 0 0 0 1 1 2 2 2 3 3 3 2 3 3 3 2 2 1 1 0 1 1 1
3 3 3 2 1 0 0 0 0 0 0 0 0 0 0 0 0 0 0 0 0 0 0 0 1 2 2 2 2 3 3 2 2 2 2 1 1 0 0 0 0 0 0 0
3 2 1 1 0 0 0 0 0 0 0 0 0 0 0 0 0 0 0 0 0 0 0 0 1 1 1 1 2 2 2 1 1 1 1 0 0 0 0 0 0 0 0 0
2 1 0 0 0 0 0 0 0 0 0 0 0 0 0 0 0 0 0 0 0 0 0 0 0 0 0 0 1 1 1 0 0 0 0 0 0 0 0 0 0 0 0 0
1 0 0 0 0 0 0 0 0 0 0 0 0 0 0 0 0 0 0 0 0 0 0 0 0 0 0 0 0 0 0 0 0 0 0 0 0 0 0 0 0 0 0 0
0 0 0 0 0 0 0 0 0 0 0 0 0 0 0 0 0 0 0 0 0 0 0 0 0 0 0 0 0 0 0 0 0 0 0 0 0 0 0 0 0 0 0 0
0 0 0 0 0 0 0 0 0 0 0 0 0 0 0 0 0 0 0 0 0 0 0 0 0 0 0 0 0 0 0 0 0 0 0 0 0 0 0 0 0 0 0 0
Wind_Speed
5 3 4 5 6 7 8 8 7 4 3 1 2 2 2 3 2 2 2 2 2 2 2 1 1 2 2 2 3 3 4 3 3 3 2 2 2 1 1 2 2 1 2 2
6 5 4 5 6 7 7 6 6 5 2 2 2 3 3 2 2 1 2 2 2 3 2 1 0 1 2 3 3 4 4 4 3 3 3 2 2 2 2 2 2 2 2 2
7 6 7 8 6 6 6 5 5 5 1 2 2 2 2 1 1 0 1 2 2 3 2 2 1 1 2 2 3 3 4 4 3 3 3 2 2 2 2 2 2 2 2 3
5 6 9 1 1 2 3 2 3 1 1 1 1 2 1 1 1 1 1 2 2 2 2 2 1 0 1 2 2 3 3 3 4 3 3 3 3 3 3 2 2 2 2 2
6 8 6 4 3 2 4 3 1 1 0 0 2 2 3 3 3 2 2 2 2 2 2 1 1 0 1 2 2 3 3 4 4 4 4 3 3 3 3 3 2 2 2 2
6 8 7 2 4 1 5 5 3 1 0 1 2 4 2 4 4 3 3 2 2 2 1 1 1 0 2 2 2 2 2 3 3 3 3 3 3 3 2 2 3 3 2 2
9 9 3 5 2 4 7 2 2 1 0 1 1 4 3 2 3 3 3 2 2 1 1 1 1 0 1 1 1 1 1 2 3 3 3 3 2 2 2 2 2 2 2 3
7 8 2 5 1 1 4 3 1 0 0 1 2 3 3 2 2 2 2 2 1 1 1 1 1 1 1 1 1 1 1 2 2 2 2 2 1 1 2 2 3 3 3 3
2 2 5 3 2 3 2 1 1 0 1 1 1 1 2 2 2 2 2 2 2 1 1 1 1 1 2 2 2 2 2 2 2 2 2 1 2 2 2 3 3 3 3 3
2 2 2 1 2 1 1 1 1 1 1 1 1 1 1 1 2 2 2 3 3 2 1 1 2 2 2 2 2 2 2 2 2 2 2 2 2 2 3 3 3 3 3 3
3 2 2 2 1 1 1 1 2 2 1 1 2 1 1 1 2 2 2 3 3 2 2 2 2 2 2 1 1 2 2 2 2 3 2 2 2 1 2 1 2 3 3 3
2 1 1 1 1 1 1 1 1 1 2 2 1 1 2 2 2 2 2 2 2 2 2 2 2 2 2 2 1 2 2 2 2 2 2 2 2 2 1 2 1 2 3 4
1 1 1 0 1 1 1 1 1 1 1 1 2 1 2 2 2 2 2 3 3 3 2 2 2 2 2 1 1 2 2 2 2 2 2 3 3 3 3 3 4 5 5 4
1 1 1 1 1 1 1 1 1 2 2 2 2 2 2 2 3 3 3 3 3 2 2 2 2 1 1 1 1 2 2 1 2 2 2 3 3 3 3 3 3 2 4 6
2 1 1 1 1 1 1 1 1 1 2 2 2 2 2 2 3 3 3 3 2 2 2 2 2 2 2 1 1 2 2 2 2 2 3 3 3 3 4 4 4 3 2 2
2 1 2 2 1 1 0 0 1 1 1 1 2 2 3 3 3 3 3 3 3 3 2 2 2 2 2 2 2 2 2 1 3 3 3 3 3 4 4 3 3 3 3 3
3 2 1 1 1 0 0 1 2 2 2 2 2 2 2 3 2 2 2 2 2 3 3 2 2 2 2 3 3 3 2 2 3 4 3 3 4 3 3 4 4 3 3 2
2 1 1 1 0 1 1 2 2 2 2 2 2 2 2 2 3 3 3 2 2 2 3 2 2 2 2 3 3 4 3 2 3 3 3 3 3 3 4 4 4 5 4 2
2 1 1 1 1 1 1 1 2 2 2 1 1 2 2 2 2 2 2 3 3 2 2 2 2 3 3 2 3 3 3 3 3 2 3 3 4 4 4 4 4 4 4 3
2 1 1 0 0 1 1 1 1 2 2 2 2 2 2 2 2 2 2 3 3 3 3 2 2 3 3 2 4 4 3 3 3 3 3 3 3 3 3 4 4 4 3 3
2 1 1 1 1 1 1 1 1 2 2 2 2 2 1 2 2 2 2 2 2 3 3 2 2 2 2 3 4 4 3 3 3 3 3 3 3 3 3 3 3 3 3 3
1 1 1 1 1 1 1 1 1 2 2 1 2 2 2 2 2 2 2 2 2 3 3 2 2 4 4 5 3 3 3 3 3 2 2 2 3 3 2 2 3 3 3 3
0 1 1 1 1 1 1 1 2 2 2 2 2 2 2 2 2 2 2 2 2 3 3 3 4 3 4 4 3 2 3 3 3 3 3 3 3 2 2 3 3 3 3 3
1 0 0 0 1 1 1 1 1 1 2 2 2 2 2 2 2 2 2 1 2 2 2 2 2 2 4 3 2 2 2 2 2 2 2 2 2 2 2 3 3 3 3 4
0 0 1 0 1 1 1 1 1 2 2 1 1 2 2 2 2 2 3 3 2 2 2 1 0 2 3 2 2 2 2 3 3 3 2 2 3 3 3 3 3 3 3 3
1 0 1 1 1 2 2 1 1 1 2 2 1 1 1 1 2 2 2 2 2 2 3 1 0 1 2 2 2 2 2 1 1 2 2 3 3 3 3 3 4 3 3 3
1 0 0 0 0 1 2 2 1 1 2 2 2 2 2 1 2 2 3 2 2 2 2 2 1 1 1 1 2 2 2 2 2 2 2 2 2 2 3 3 3 3 3 3
Wind_Direction
253 260 249 236 227 220 235 260 273 271 263 244 160 157 150 153 145 111 90 71 59 52 59 74 119 150 166 182 186 184 188 194 189 193 194 211 231 254 266 273 275 289 289 287
222 221 228 238 238 232 235 247 251 260 272 36 93 136 144 150 146 113 78 46 33 32 36 32 82 159 178 186 186 188 196 199 187 193 200 209 218 226 244 257 269 275 275 277
225 212 229 232 238 241 230 236 252 264 310 117 155 154 153 149 156 147 44 30 26 18 7 348 319 186 196 193 187 189 200 202 196 200 208 214 230 227 239 247 250 269 285 289
235 217 239 231 68 261 238 240 278 307 80 133 161 144 111 95 90 24 18 20 25 14 1 345 336 178 188 182 188 184 200 212 211 205 206 213 222 235 241 246 251 257 268 281
247 236 231 178 159 216 232 225 299 283 79 110 135 167 123 68 38 28 28 24 28 28 353 351 346 149 182 182 177 183 198 213 209 202 206 213 220 229 242 245 247 250 257 267
241 252 251 135 106 197 243 203 92 38 127 142 204 235 81 51 29 31 38 37 32 35 24 12 351 203 214 205 199 204 205 205 198 202 208 216 224 230 228 235 248 257 267 276
242 249 240 70 101 209 237 61 67 345 327 231 263 350 55 53 47 48 47 44 39 33 26 14 341 237 228 231 225 220 198 186 190 207 217 219 221 222 221 228 248 261 267 266
239 246 204 76 159 276 18 31 59 331 303 348 46 52 69 61 52 41 33 31 24 21 7 352 319 268 264 273 278 256 227 204 199 218 233 202 202 224 234 238 235 238 241 254
291 7 65 71 47 42 13 6 35 58 47 70 95 88 75 52 41 35 17 358 341 335 338 331 316 283 276 289 277 248 233 216 213 219 224 230 215 219 231 235 248 255 256 265
210 146 101 90 86 73 38 17 21 80 96 85 72 69 62 43 28 21 4 342 329 326 330 338 329 303 283 266 251 239 229 224 212 213 215 215 239 238 247 255 259 259 265 274
211 167 150 136 103 83 76 77 81 77 70 56 58 53 23 357 2 354 342 330 324 322 329 334 335 324 310 289 248 241 236 227 221 220 217 216 225 258 258 277 299 288 284 278
241 156 260 103 88 88 88 91 94 90 70 45 30 17 7 2 350 333 331 325 318 319 321 314 306 304 301 286 258 249 243 244 250 240 226 234 229 221 167 235 169 234 272 287
316 305 6 56 85 83 88 87 90 85 67 25 18 18 1 351 341 335 327 321 320 311 300 292 285 291 298 286 256 255 265 263 266 259 237 241 244 246 238 214 207 220 228 240
155 156 162 153 105 89 101 91 80 72 61 43 27 9 354 346 342 334 322 316 316 302 287 280 286 298 296 275 258 258 260 229 244 250 249 253 254 257 256 258 248 241 211 212
143 193 170 145 121 94 107 113 95 59 45 30 25 13 357 348 339 334 328 321 322 307 301 295 295 310 319 288 265 264 267 265 261 259 249 251 254 258 262 264 265 269 275 204
177 166 133 144 148 117 94 28 332 339 354 359 1 4 357 349 339 334 337 331 320 326 326 305 298 315 306 282 269 259 261 274 269 264 256 249 244 247 254 261 268 277 279 283
186 177 167 186 179 186 326 341 335 330 332 342 345 349 348 343 338 338 335 331 327 322 312 305 313 318 298 285 280 275 272 232 230 260 261 263 262 262 263 263 265 268 273 289
170 162 168 206 266 345 353 340 338 338 333 333 329 326 328 326 325 329 319 312 312 310 314 320 330 310 293 293 293 291 280 269 254 259 264 265 275 274 269 265 265 266 268 240
141 125 105 81 26 327 307 316 327 337 331 316 303 303 306 310 316 323 326 316 301 292 319 335 326 281 289 308 300 276 281 281 278 277 276 266 261 265 268 273 277 276 276 281
145 138 130 109 265 282 291 321 324 320 315 300 293 299 305 316 322 317 311 302 326 349 351 337 294 294 301 309 293 279 279 283 288 288 279 276 277 278 278 280 282 285 286 283
163 179 202 231 263 285 292 301 311 311 302 296 300 300 306 317 316 310 300 310 359 355 338 321 297 317 318 329 276 291 302 298 293 289 288 290 295 298 300 302 305 309 311 311
188 195 208 235 243 249 256 267 289 315 317 312 312 304 301 300 301 309 319 324 342 353 312 311 335 8 350 319 301 312 310 306 305 305 307 307 308 313 317 319 320 320 318 316
129 170 192 230 250 251 253 264 290 309 313 307 298 291 291 307 311 306 302 323 334 1 315 341 13 7 323 292 301 312 317 323 324 328 326 318 319 325 323 316 316 316 317 319
42 44 34 311 264 246 262 288 303 299 293 290 295 300 293 285 288 292 319 21 356 326 313 24 19 315 284 287 307 316 321 322 326 326 318 314 319 320 311 306 309 318 325 324
91 87 96 121 228 253 267 257 254 263 276 287 307 314 299 305 311 327 334 347 6 309 310 64 122 277 276 304 315 316 321 343 340 333 325 322 319 317 319 323 330 330 326 326
79 45 45 339 321 297 282 276 281 287 290 293 304 313 314 324 325 324 313 315 317 299 300 313 245 247 285 311 318 317 317 309 285 301 319 318 319 320 324 328 328 326 326 331
168 177 210 261 322 321 318 312 304 308 315 315 312 320 323 330 330 325 315 312 309 294 302 310 315 302 305 317 321 328 328 321 316 314 318 320 322 317 316 316 320 327 328 330